{"data":{"norad_id":68649,"epoch":"2026-05-24T02:58:47.296128Z","epoch_age_seconds":154186,"freshness":"FRESH","line1":"1 68649U 26075P   26144.12415852  .00000042  00000+0  34884-4 0  9994","line2":"2 68649  88.9875 323.4690 0009929  68.0287 292.1927 13.66987831  6557","mean_motion":13.66987831,"eccentricity":0.0009929,"inclination_deg":88.9875,"raan_deg":323.469,"arg_perigee_deg":68.0287,"mean_anomaly_deg":292.1927,"bstar":3.4884e-5,"rev_number":655,"period_min":105.3410986802,"perigee_km":1003.0688476369,"apogee_km":1017.7410142033,"semimajor_km":7388.5419309201,"source":"CELESTRAK","updated_at":"2026-05-25T13:38:07.993533Z"}}